Stations météo

Publicité
Bale-Mulhouse, France (7299): Température de l'air & dewpoint: 18.01.2021 06:00:00 - 24.01.2021 06:00:00 (CET)Bale-Mulhouse, France (7299): Température de l'air 5cm: 18.01.2021 06:00:00 - 24.01.2021 06:00:00 (CET)Bale-Mulhouse, France (7299): Température de l'air -20cm & Température de l'air -100cm: 18.01.2021 06:00:00 - 24.01.2021 06:00:00 (CET)Bale-Mulhouse, France (7299): Vitesse du vent & gusts: 18.01.2021 06:00:00 - 24.01.2021 06:00:00 (CET)Bale-Mulhouse, France (7299): Direction du vent: 18.01.2021 06:00:00 - 24.01.2021 06:00:00 (CET)Bale-Mulhouse, France (7299): reduced air pressure: 18.01.2021 06:00:00 - 24.01.2021 06:00:00 (CET)Bale-Mulhouse, France (7299): visibility: 18.01.2021 06:00:00 - 24.01.2021 06:00:00 (CET)Bale-Mulhouse, France (7299): Quantités de précipitations: 18.01.2021 06:00:00 - 24.01.2021 06:00:00 (CET)
Date & Time tt [°C] td [°C] tt 5cm [°C] tt -20cm [°C] tt -100cm [°C] ff [km/h] ff [knt] fx [km/h] fx [knt] dd ppp [hPa] vv [km] rr [mm]
24.01.2021 06:00:00 1,2 -2,4 -0,2 3,8 4,7 18 10 41 22 W 1003,3 60 0,0
24.01.2021 05:00:00 0,8 -0,5 0,0 3,7 4,7 19 10 36 19 W 1002,9 4,3 0,2
24.01.2021 04:00:00 1,7 -0,9 0,1 3,9 4,7 15 8 36 20 WSW 1002,0 60 0,0
24.01.2021 03:00:00 2,0 -0,3 0,8 4,0 4,7 24 13 50 27 W 1000,5 22 0,0
24.01.2021 02:00:00 2,2 0,1 1,0 4,0 4,7 32 17 54 29 WSW 999,1 60 0,0
24.01.2021 01:00:00 3,2 1,4 1,7 4,0 4,7 27 14 46 25 WSW 997,8 37 0,0
24.01.2021 00:00:00 3,1 1,5 1,8 4,1 4,7 23 13 41 22 WSW 997,5 60 0,0
23.01.2021 23:00:00 3,4 1,9 2,4 4,1 4,7 29 15 49 26 WSW 996,2 14 0,0
23.01.2021 22:00:00 2,5 1,9 1,9 4,1 4,7 5 3 21 11 SE 995,9 21 2,2
23.01.2021 21:00:00 3,5 1,5 2,6 4,2 4,7 13 7 21 11 SSW 995,1 3,6 2,0
23.01.2021 20:00:00 4,1 2,1 1,1 4,2 4,7 9 5 18 10 S 995,2 23 0,4
23.01.2021 19:00:00 2,5 1,8 1,1 4,2 4,7 6 3 26 14 E 995,7 25 0,4
23.01.2021 18:00:00 4,8 2,2 3,6 4,2 4,7 15 8 25 14 W 995,5 12 0,0
23.01.2021 17:00:00 4,3 1,3 3,9 4,1 4,7 14 7 23 12 E 994,9 25 0,0
23.01.2021 16:00:00 4,7 1,7 4,1 4,1 4,7 14 7 23 12 ESE 995,4 25 0,0
23.01.2021 15:00:00 4,5 1,9 3,6 4,0 4,6 12 6 38 21 SE 996,3 60 0,4
23.01.2021 14:00:00 6,0 0,7 6,5 3,9 4,6 16 9 28 15 ESE 996,6 30 0,0
23.01.2021 13:00:00 5,9 0,2 6,2 3,8 4,6 15 8 22 12 ESE 997,9 30 0,0
23.01.2021 12:00:00 4,9 1,7 4,9 3,8 4,6 9 5 18 10 ESE 999,8 30 0,0
23.01.2021 11:00:00 4,1 1,5 3,9 3,8 4,6 10 5 19 10 SSE 1000,8 30 0,0
23.01.2021 10:00:00 3,3 1,5 2,0 3,9 4,6 9 5 14 8 SE 1001,4 30 0,0
23.01.2021 09:00:00 2,3 1,3 0,4 3,9 4,6 11 6 16 9 SE 1002,5 30 0,0
23.01.2021 08:00:00 2,0 1,3 1,3 3,9 4,5 7 4 10 5 SSE 1003,0 18 0,0
23.01.2021 07:00:00 2,1 1,1 1,2 4,0 4,5 3 1 10 5 E 1003,3 30 0,0
23.01.2021 06:00:00 2,2 1,0 1,2 4,0 4,5 8 5 11 6 ESE 1003,2 30 0,0
23.01.2021 05:00:00 2,9 0,9 1,6 4,1 4,5 3 2 11 6 SSE 1003,4 58 0,0
23.01.2021 04:00:00 2,7 0,9 1,4 4,2 4,5 6 3 34 19 SSW 1003,4 53 0,0
23.01.2021 03:00:00 2,7 1,1 1,8 4,3 4,5 23 12 45 24 WSW 1003,0 49 0,0
23.01.2021 02:00:00 2,4 0,9 0,9 4,4 4,5 24 13 40 22 W 1002,3 47 0,4
23.01.2021 01:00:00 1,2 0,6 0,1 4,4 4,5 13 7 26 14 W 1001,8 18 1,2
23.01.2021 00:00:00 1,1 0,4 0,4 4,5 4,5 13 7 25 13 W 1001,1 5 2,1
22.01.2021 23:00:00 1,6 0,9 1,1 4,5 4,5 22 12 40 21 NNW 999,1 7 2,2
22.01.2021 22:00:00 3,6 3,0 3,4 4,5 4,5 24 13 43 23 NNW 996,9 7 2,0
22.01.2021 21:00:00 3,7 3,1 3,5 4,5 4,4 19 10 37 20 NNW 995,6 5 1,2
22.01.2021 20:00:00 4,3 3,9 4,0 4,5 4,4 22 12 30 16 NNW 994,5 8 0,2
22.01.2021 19:00:00 6,1 5,5 5,8 4,5 4,5 16 9 29 16 N 993,6 7 0,0
22.01.2021 18:00:00 7,1 6,7 6,2 4,4 4,4 9 5 13 7 NW 992,9 15 0,0
22.01.2021 17:00:00 7,8 6,9 6,9 4,3 4,4 3 1 10 5 ENE 993,4 20 0,4
22.01.2021 16:00:00 8,3 7,1 7,7 4,3 4,4 4 2 18 10 NNE 994,0 7 1,4
22.01.2021 15:00:00 9,8 6,0 7,8 4,1 4,4 13 7 21 11 WNW 994,2 8 0,4
22.01.2021 14:00:00 10,8 4,9 10,2 4,0 4,4 5 3 15 8 SSW 993,6 40 0,0
22.01.2021 13:00:00 10,7 4,6 10,8 3,9 4,4 6 3 24 13 N 993,4 40 0,0
22.01.2021 12:00:00 11,8 3,5 11,7 3,9 4,4 18 10 35 19 E 993,9 40 0,0
22.01.2021 11:00:00 11,9 3,1 11,2 3,8 4,4 17 9 23 13 SE 994,7 40 0,0
22.01.2021 10:00:00 11,1 3,9 9,6 3,8 4,4 11 6 20 11 E 995,3 30 0,0
22.01.2021 09:00:00 10,5 4,4 7,7 3,7 4,3 11 6 21 12 SSE 996,0 30 0,0
22.01.2021 08:00:00 9,4 3,4 6,4 3,7 4,4 15 8 31 17 S 996,4 30 0,0
22.01.2021 07:00:00 10,3 2,6 7,4 3,7 4,3 16 9 52 28 S 996,6 30 0,0
22.01.2021 06:00:00 10,6 2,7 7,6 3,6 4,3 16 9 45 24 S 997,0 60 0,0
22.01.2021 05:00:00 11,0 3,3 8,4 3,6 4,4 24 13 48 26 SSW 997,5 60 0,0
22.01.2021 04:00:00 11,1 3,1 8,7 3,6 4,4 23 12 44 24 SSW 998,0 60 0,0
22.01.2021 03:00:00 11,1 2,4 8,4 3,5 4,4 18 10 66 35 SSW 998,3 60 0,0
22.01.2021 02:00:00 11,5 2,5 8,1 3,4 4,3 30 16 58 31 SW 998,6 60 0,0
22.01.2021 01:00:00 10,6 4,3 7,4 3,4 4,3 26 14 54 29 SSW 998,7 60 0,0
22.01.2021 00:00:00 10,6 5,6 7,7 3,3 4,4 22 12 59 32 SW 999,2 37 0,2
21.01.2021 23:00:00 12,5 4,2 9,8 3,2 4,3 23 13 54 29 SW 997,9 60 0,0
21.01.2021 22:00:00 12,9 4,1 9,9 3,1 4,4 26 14 50 27 SSW 998,2 60 0,0
21.01.2021 21:00:00 12,7 3,6 7,8 3,1 4,4 27 15 47 26 SW 999,2 60 0,0
21.01.2021 20:00:00 11,9 3,4 8,8 3,0 4,4 8 4 42 23 W 999,4 60 0,0
21.01.2021 19:00:00 12,3 3,2 8,4 2,9 4,4 12 7 26 14 SSW 999,4 40 0,0
21.01.2021 18:00:00 11,6 3,9 8,5 2,8 4,4 10 5 16 9 S 1000,4 40 0,0
21.01.2021 17:00:00 10,9 3,9 7,9 2,7 4,4 5 3 22 12 S 1001,3 40 0,0
21.01.2021 16:00:00 11,6 4,3 9,9 2,5 4,4 8 4 21 11 SSE 1001,7 40 0,0
21.01.2021 15:00:00 12,8 4,5 11,3 2,4 4,4 13 7 35 19 SSW 1001,8 30 0,0
21.01.2021 14:00:00 12,7 5,1 9,9 2,3 4,4 18 10 39 21 SW 1002,6 30 0,0
21.01.2021 13:00:00 12,3 4,3 9,8 2,2 4,4 16 9 53 28 SW 1003,0 25 0,0
21.01.2021 12:00:00 12,7 3,9 8,0 2,1 4,4 19 11 48 26 SSW 1003,1 40 0,0
21.01.2021 11:00:00 10,9 2,7 6,8 2,1 4,4 23 12 47 26 SSW 1003,5 40 0,0
21.01.2021 10:00:00 10,5 2,1 5,3 2,1 4,4 24 13 55 30 SSW 1003,1 40 0,0
21.01.2021 09:00:00 9,8 1,9 5,0 2,2 4,4 20 11 53 29 SSW 1003,4 40 0,0
21.01.2021 08:00:00 10,3 1,6 4,5 2,2 4,4 18 10 49 26 S 1003,2 40 0,0
21.01.2021 07:00:00 10,3 1,4 2,7 2,2 4,4 26 14 56 31 SSW 1002,8 40 0,0
21.01.2021 06:00:00 4,4 -0,6 1,6 2,2 4,5 9 5 23 13 ESE 1003,9 43 0,0
21.01.2021 05:00:00 3,6 -0,8 1,5 2,2 4,4 9 5 19 11 S 1004,1 43 0,0
21.01.2021 04:00:00 4,0 -0,8 1,8 2,2 4,4 15 8 22 12 SSE 1003,4 46 0,0
21.01.2021 03:00:00 4,1 -0,9 1,6 2,2 4,4 9 5 27 15 S 1003,7 53 0,0
21.01.2021 02:00:00 3,3 -0,9 1,3 2,2 4,5 5 3 29 16 SSE 1003,6 51 0,0
21.01.2021 01:00:00 2,5 -0,8 -0,2 2,2 4,5 10 5 19 10 S 1003,9 32 0,0
21.01.2021 00:00:00 2,4 -1,0 -0,2 2,1 4,4 9 5 21 12 S 1004,5 30 0,0
20.01.2021 23:00:00 3,2 -1,0 1,0 2,2 4,5 19 10 26 14 SSE 1004,8 33 0,0
20.01.2021 22:00:00 3,5 -0,9 -2,6 2,1 4,5 13 7 19 11 S 1005,1 26 0,0
20.01.2021 21:00:00 1,1 -1,3 -2,3 2,2 4,5 4 2 13 7 W 1005,9 23 0,0
20.01.2021 20:00:00 1,5 -0,6 -1,5 2,2 4,5 3 2 6 4 S 1005,7 14 0,0
20.01.2021 19:00:00 2,5 -0,6 -0,1 2,2 4,5 4 2 11 6 SE 1005,7 30 0,0
20.01.2021 18:00:00 4,7 -0,5 1,5 2,1 4,5 10 5 20 11 SSE 1005,5 30 0,0
20.01.2021 17:00:00 4,9 -0,5 1,9 2,1 4,5 10 5 14 7 ESE 1005,8 35 0,0
20.01.2021 16:00:00 6,2 -0,3 3,7 2,1 4,5 6 3 14 8 ESE 1006,2 35 0,0
20.01.2021 15:00:00 7,7 -0,1 5,5 2,1 4,5 4 2 10 5 SSE 1006,8 35 0,0
20.01.2021 14:00:00 6,4 -0,4 5,1 2,1 4,5 4 2 7 4 SSE 1007,6 30 0,0
20.01.2021 13:00:00 5,4 -0,2 4,2 2,1 4,5 0 0 6 3 N 1008,8 30 0,0
20.01.2021 12:00:00 3,7 -0,9 3,3 2,1 4,5 3 2 8 4 S 1010,0 30 0,0
20.01.2021 11:00:00 2,2 -1,2 -0,2 2,1 4,5 0 0 11 6 N 1011,0 25 0,0
20.01.2021 10:00:00 1,0 -2,1 -0,9 2,1 4,5 8 4 16 8 SSW 1011,4 25 0,0
20.01.2021 09:00:00 0,1 -2,3 -2,2 2,1 4,5 12 6 16 9 S 1012,3 25 0,0
20.01.2021 08:00:00 -0,4 -2,5 -2,1 2,1 4,5 10 5 16 8 SSW 1012,7 25 0,0
20.01.2021 07:00:00 0,0 -2,2 -1,5 2,1 4,5 10 5 21 11 S 1013,2 20 0,0
20.01.2021 06:00:00 0,1 -2,3 -2,1 2,2 4,5 13 7 23 12 S 1013,6 21 0,0
20.01.2021 05:00:00 0,2 -2,5 -2,2 2,1 4,5 14 8 21 11 S 1014,0 20 0,0
20.01.2021 04:00:00 0,1 -2,4 -3,1 2,1 4,5 11 6 20 11 S 1014,5 22 0,0
20.01.2021 03:00:00 -0,2 -2,9 -3,6 2,1 4,5 9 5 16 8 S 1014,8 22 0,0
20.01.2021 02:00:00 -0,3 -2,0 -3,0 2,1 4,5 9 5 15 8 SSW 1015,1 21 0,0
20.01.2021 01:00:00 0,9 -1,5 -4,1 2,1 4,5 14 8 22 12 S 1015,7 20 0,0
20.01.2021 00:00:00 -0,8 -2,4 -4,0 2,1 4,5 5 3 14 8 S 1016,7 13 0,0
19.01.2021 23:00:00 0,3 -1,8 -2,3 2,1 4,5 8 4 14 8 SW 1016,9 14 0,0
19.01.2021 22:00:00 1,7 -1,0 -0,1 2,1 4,5 9 5 20 11 S 1017,1 20 0,0
19.01.2021 21:00:00 2,4 -0,4 1,0 2,1 4,5 10 5 20 11 S 1017,8 18 0,0
19.01.2021 20:00:00 2,5 -0,4 1,2 2,1 4,5 11 6 25 13 S 1018,2 18 0,0
19.01.2021 19:00:00 2,5 -0,8 1,0 2,1 4,5 11 6 25 13 S 1018,4 25 0,0
19.01.2021 18:00:00 2,6 -1,4 0,5 2,1 4,6 16 8 22 12 S 1018,5 25 0,0
19.01.2021 17:00:00 3,4 -1,8 1,2 2,1 4,6 8 4 14 7 S 1018,9 40 0,0
19.01.2021 16:00:00 3,7 -1,7 2,9 2,1 4,5 11 6 13 7 SSE 1019,1 40 0,0
19.01.2021 15:00:00 4,9 -1,8 3,6 2,1 4,5 3 1 7 4 S 1019,3 40 0,0
19.01.2021 14:00:00 3,6 -1,8 2,8 2,1 4,5 5 3 16 9 SSE 1019,8 30 0,0
19.01.2021 13:00:00 2,7 -2,2 2,5 2,1 4,5 10 5 25 14 S 1020,6 30 0,0
19.01.2021 12:00:00 1,6 -2,4 1,9 2,1 4,6 13 7 21 11 S 1021,6 25 0,0
19.01.2021 11:00:00 0,8 -2,3 0,3 2,2 4,6 14 8 22 12 SSE 1022,4 25 0,0
19.01.2021 10:00:00 -0,6 -2,8 -1,9 2,1 4,5 13 7 22 12 SSE 1023,0 25 0,0
19.01.2021 09:00:00 -2,4 -4,3 -5,1 2,2 4,6 10 5 18 10 S 1023,5 25 0,0
19.01.2021 08:00:00 -3,3 -4,7 -5,7 2,2 4,6 14 7 17 9 SSE 1024,0 20 0,0
19.01.2021 07:00:00 -3,6 -5,0 -5,8 2,3 4,6 10 6 16 9 SSE 1024,6 20 0,0
19.01.2021 06:00:00 -3,3 -4,7 -5,9 2,2 4,6 12 7 15 8 SSE 1025,1 20 0,0
19.01.2021 05:00:00 -3,5 -4,6 -6,4 2,3 4,6 12 7 15 8 SSE 1025,7 21 0,0
19.01.2021 04:00:00 -2,9 -4,2 -6,5 2,3 4,6 12 6 17 9 SSE 1026,2 17 0,0
19.01.2021 03:00:00 -3,4 -5,3 -8,8 2,3 4,6 13 7 18 10 SSE 1027,0 33 0,0
19.01.2021 02:00:00 -3,7 -5,7 -8,3 2,3 4,6 7 4 13 7 SSE 1027,5 28 0,0
19.01.2021 01:00:00 -3,9 -5,3 -8,0 2,3 4,6 5 3 13 7 E 1028,1 35 0,0
19.01.2021 00:00:00 -2,3 -4,8 -7,0 2,3 4,6 5 3 12 7 SSW 1028,5 24 0,0
18.01.2021 23:00:00 -2,3 -3,4 -5,9 2,3 4,6 4 2 10 5 SSW 1028,7 19 0,0
18.01.2021 22:00:00 -1,2 -2,5 -3,3 2,3 4,6 8 4 10 5 S 1029,0 12 0,0
18.01.2021 21:00:00 -0,7 -2,3 -2,7 2,3 4,6 6 3 10 5 SSW 1029,0 12 0,0
18.01.2021 20:00:00 0,3 -1,5 -2,3 2,3 4,6 8 4 15 8 SSE 1029,1 11 0,0
18.01.2021 19:00:00 0,0 -1,0 -2,0 2,3 4,6 3 2 8 4 SSW 1028,9 20 0,0
18.01.2021 18:00:00 0,8 -0,7 -1,4 2,3 4,6 5 3 8 4 S 1028,7 20 0,0
18.01.2021 17:00:00 2,1 0,0 0,6 2,3 4,6 6 3 18 10 SW 1028,5 40 0,0
18.01.2021 16:00:00 2,5 0,2 1,7 2,3 4,6 12 7 19 10 SW 1028,5 40 0,0
18.01.2021 15:00:00 2,6 0,0 1,8 2,3 4,6 12 6 17 9 W 1028,8 30 0,0
18.01.2021 14:00:00 2,8 0,0 2,3 2,3 4,6 16 8 25 14 WSW 1028,9 22 0,0
18.01.2021 13:00:00 2,7 0,1 2,2 2,3 4,6 16 9 29 15 WSW 1029,3 30 0,0
18.01.2021 12:00:00 2,5 0,1 2,2 2,3 4,6 22 12 30 16 WSW 1029,7 30 0,0
18.01.2021 11:00:00 2,6 0,3 1,5 2,3 4,6 13 7 27 15 WSW 1030,0 25 0,0
18.01.2021 10:00:00 2,3 0,2 1,1 2,3 4,6 13 7 32 17 W 1029,8 25 0,0
18.01.2021 09:00:00 2,0 0,4 0,7 2,3 4,6 17 9 27 14 WSW 1029,5 25 0,0
18.01.2021 08:00:00 1,9 0,3 0,7 2,3 4,6 13 7 32 17 W 1029,3 20 0,0
18.01.2021 07:00:00 1,9 0,3 0,6 2,3 4,6 15 8 29 16 WSW 1028,9 23 0,0
18.01.2021 06:00:00 1,9 0,4 0,6 2,3 4,6 16 9 25 13 W 1028,6 26 0,0

tt = Température de l'air
td = dewpoint
tt 5cm = Température de l'air 5cm
tt -20cm = Température de l'air -20cm
tt -100cm = Température de l'air -100cm
ff = Vitesse du vent
fx = gusts
dd = Direction du vent
ppp = reduced air pressure
vv = visibility
rr = Quantités de précipitations

stations d'obs. à proximité